Location: B�rgermoos
(47.6500°N, 9.0667°E)
Time: 08:04:15
(UTC+00:00)

A-11 Canister half - Pass Details

Date: 07 August 2021
Orbit: 1526 x 1683 km, 47.3° (Epoch: 20 September)

Event Time Altitude Azimuth Distance (km) Brightness Sun altitude
Rises 12:06:22 0° 270° (W) 4,936 11.8 57.7°
Reaches altitude 10° 12:09:32 10° 271° (W) 3,945 11.4 57.6°
Maximum altitude 12:19:44 88° 184° (S) 1,666 10.4 57.0°
Drops below altitude 10° 12:29:41 10° 96° (E) 3,856 11.1 56.3°
Sets 12:32:45 0° 96° (E) 4,821 11.5 56.0°
